ASTEX 1

Last updated on Mon Sep 21 2026 00:02:07 GMT+0000 (Coordinated Universal Time)

1 05560U 71089A 26263.45522496 .00000222 00000+0 56250-4 0 9994 2 05560 92.7111 214.5776 0016851 139.6702 220.5758 14.50913628890544
UTC large
Height (km)
Speed (km/s)
/
Latitude / Longitude
Inclination (degrees)
Orbital Period (minutes)
Azimuth
Elevation
Range (km)
Doppler Factor

Next 0 passes for location: London (51.5072 / 0.1276)

No passes found over London.
ASTEX 1